Location: Indian Hills
(32.9760°N, 85.9450°W)
Time: 18:23:30
(UTC+00:00)

Cosmos 2242 Rocket - Pass Details

Date: 09 December 2019
Orbit: 618 x 652 km, 82.5° (Epoch: 18 January)

Event Time Altitude Azimuth Distance (km) Brightness Sun altitude
Exits shadow 10:37:51 27° 6° (N) 1,248 5.0 -23.9°
Maximum altitude 10:40:17 68° 83° (E) 689 3.9 -23.4°
Drops below altitude 10° 10:44:43 10° 166° (SSE) 2,009 6.5 -22.5°
Sets 10:46:57 0° 169° (S) 2,906 7.3 -22.0°
